Location: Goheenville
(40.9070°N, 79.3720°W)
Time: 13:18:33
(UTC-05:00)

Daily predictions for brighter satellites

Satellite Brightness Start Highest point End
(mag) Time Altitude Azimuth Time Altitude Azimuth Time Altitude Azimuth
Cosmos 1378 Rocket 3.7 17:14:43 10° S 17:19:00 79° W 17:23:20 10° N
CZ-2C R/B 2.8 17:14:48 10° SE 17:19:30 46° ENE 17:24:22 10° N
SL-27 R/B 3.4 17:16:44 10° N 17:19:57 28° ENE 17:23:08 10° SE
Cosmos 158 Rocket 4.0 17:14:49 10° NNW 17:20:10 65° ENE 17:25:23 10° SSE
Cosmos 2263 Rocket 3.7 17:17:00 10° WSW 17:22:01 33° WNW 17:27:05 10° N
Cosmos 1633 3.2 17:19:33 10° NNW 17:23:05 59° W 17:26:36 10° S
Cosmos 2366 rocket 4.5 17:19:24 10° N 17:25:19 39° ENE 17:31:10 10° SE
SMAP 3.2 17:22:33 10° SSE 17:27:03 51° ENE 17:31:34 10° N
IRS-1A Rocket 4.4 17:21:48 10° S 17:27:17 79° WSW 17:32:50 10° NNW
Cosmos 2218 Rocket 4.2 17:22:31 10° N 17:28:35 47° ENE 17:34:31 10° SSE
Cosmos 2181 Rocket 4.1 17:23:07 10° S 17:29:26 81° E 17:35:53 10° N
Cosmos 1048 Rocket 4.4 17:24:44 10° NNW 17:30:02 72° WSW 17:35:22 10° S
Cosmos 1455 Rocket 3.8 17:27:59 10° NNE 17:31:58 32° ENE 17:35:57 10° SE
Cosmos 1536 3.1 17:28:01 10° NNW 17:32:05 74° W 17:36:09 10° S
Abrixas 4.3 17:33:59 10° NW 17:36:10 18° N 17:38:04 11° NE
OTV 4 2.4 17:37:47 10° WSW 17:40:22 26° SSW 17:42:57 10° SE
Cosmos 1295 Rocket 4.5 17:36:45 10° N 17:42:55 88° W 17:49:00 10° S
GEOS 3 Rocket 4.3 17:38:33 10° ESE 17:43:03 32° NE 17:47:34 10° NNW
Cosmos 1812 3.2 17:40:06 10° SSE 17:43:42 39° E 17:47:20 10° NNE
Cosmos 1844 Rocket 2.7 17:42:03 10° SSW 17:47:38 88° WNW 17:53:18 10° NNE
PAYLOAD A 4.5 17:43:57 10° S 17:48:40 62° W 17:53:34 10° NNW
Cosmos 1346 Rocket 4.0 17:46:42 10° SE 17:49:40 21° E 17:51:16 16° ENE
SPOT 3 Rocket 3.7 17:50:18 10° S 17:55:29 80° WSW 18:00:42 10° NNW
MSX 3.8 17:49:53 10° SSE 17:55:34 67° ENE 18:01:17 10° N
SL-8 R/B 4.0 17:53:09 10° SW 17:57:48 54° SE 18:00:58 20° ENE
Cosmos 1844 3.6 17:55:34 10° SSW 18:01:08 89° ESE 18:06:44 10° NNE
CZ-4 R/B 2.6 17:57:35 10° S 18:01:39 48° W 18:05:41 10° NNW
SL-08 R/B 4.5 17:55:33 10° N 18:01:58 80° E 18:08:15 10° S
CORIOLIS 4.3 17:58:49 10° S 18:04:14 79° WSW 18:09:40 10° NNW
USA 234 3.9 18:01:00 11° NE 18:07:00 49° NNW 18:13:13 10° WSW
COSMOS 2487 4.1 18:04:10 10° N 18:05:47 19° NNE 18:05:47 19° NNE
USA 32 4.4 18:05:18 10° SSW 18:10:29 68° W 18:15:42 10° N
ASTRO F (AKARI) 4.3 18:08:31 10° N 18:11:40 75° WNW 18:14:47 10° SSW
Meteor 1-12 Rocket 4.2 18:06:23 10° N 18:12:11 77° E 18:18:03 10° SSE
IDEFIX/ARIANE 42P 3.3 18:08:52 10° S 18:13:58 57° W 18:19:05 10° NNW
Cosmos 1975 2.8 18:10:09 10° N 18:14:12 60° E 18:18:11 10° SSE
Cosmos 2278 Rocket 2.1 18:12:38 10° SSW 18:18:15 75° ESE 18:23:01 15° NNE
COSMO-SKYMED 1 2.5 18:15:50 10° NNE 18:20:06 69° E 18:24:25 10° S
Cosmos 1544 Rocket 4.3 18:15:52 10° NNW 18:20:15 56° W 18:24:36 10° S
Nadezhda 3 Rocket 4.1 18:16:15 10° SSE 18:22:13 52° E 18:28:16 10° NNE
NOSS 3-3 (A) 3.9 18:16:06 10° SSW 18:22:14 74° ESE 18:26:54 20° NE
NOSS 3-3 (C) 3.9 18:16:12 10° SSW 18:22:20 73° ESE 18:26:58 21° NE
Cosmos 494 Rocket 4.1 18:22:09 10° NNW 18:27:24 76° WSW 18:32:39 10° SSE
Tiangong 1 2.6 18:27:40 10° SSW 18:29:52 24° SSE 18:29:52 24° SSE
ISS -1.7 18:28:35 10° W 18:31:23 25° NNW 18:32:01 24° N
ATLAS 2AS CENTAUR R/B 3.2 18:23:23 10° NW 18:31:26 74° WSW 18:38:54 10° SSE
Meteor 1-13 Rocket 4.2 18:31:38 10° S 18:37:09 60° E 18:41:41 16° NNE
Genesis I 3.6 18:33:36 10° NNW 18:36:53 45° NNE 18:36:53 45° NNE
Cosmos 1484 Rocket 3.2 18:33:52 10° S 18:37:36 61° W 18:41:18 10° NNW
Meteor 2-14 Rocket 4.4 18:31:47 10° N 18:37:51 58° E 18:43:53 10° SSE
Cosmos 1536 Rocket 4.3 18:35:33 10° SSW 18:39:54 54° W 18:44:19 10° N
Cosmos 2082 Rocket 2.3 18:38:23 10° NNW 18:43:51 48° ENE 18:45:10 41° E
Cosmos 1833 Rocket 2.9 18:42:17 10° NNW 18:47:38 44° ENE 18:47:38 44° ENE
Timation 1 Rocket 4.4 18:43:59 10° S 18:49:44 53° ESE 18:50:53 46° ENE
NOAA 12 3.9 18:45:15 10° SSE 18:50:31 75° ENE 18:55:48 10° N
METEOR-M 4.0 18:49:40 10° SSE 18:54:57 70° ENE 19:00:18 10° N
Meteor 2-21 Rocket 4.4 18:48:48 10° N 18:55:03 88° E 19:01:12 10° S
Cosmos 1500 4.1 18:53:07 10° NNW 18:56:49 48° W 19:00:30 10° SSW
Meteor 2-16 Rocket 4.3 18:53:53 10° N 18:59:59 79° E 19:06:04 10° S
Meteor 1-28 Rocket 3.5 19:00:17 66° WNW 19:00:23 66° WNW 19:04:09 10° SSW
Cosmos 921 Rocket 3.4 18:58:24 10° S 19:01:34 50° S 19:01:34 50° S
BREEZE M DEB (TANK) 2.5 18:57:02 10° WSW 19:04:05 80° W 19:04:05 80° W
Okean 1-7 Rocket 3.7 19:04:38 10° SSW 19:09:09 73° W 19:09:30 69° NW
BREEZE-M R/B 3.9 18:59:54 10° WSW 19:09:11 63° NNW 19:10:11 53° NNE
Meteor 2-4 Rocket 3.8 19:04:01 10° S 19:08:15 52° SSE 19:08:15 52° SSE
Cosmos 1535 Rocket 4.4 19:13:26 10° N 19:19:48 85° W 19:26:01 10° S
GEOS 3 Rocket 4.5 19:16:36 13° SSE 19:20:56 47° WSW 19:25:52 10° NW
Cosmos 1934 Rocket 3.8 19:16:28 10° N 19:22:40 81° E 19:28:56 10° S
Timation 2 Rocket 4.3 19:20:16 10° NNW 19:27:05 73° WSW 19:33:01 14° SSE
ATLAS 3B CENTAUR R/B 3.9 19:22:54 10° WSW 19:36:03 35° SSW 19:38:07 30° SSE
CZ-3B DEB 3.8 19:36:16 10° W 19:41:25 42° NNW 19:43:54 36° NNE
Cosmos 2278 Rocket 4.5 19:59:11 10° W 20:02:58 18° NW 20:04:53 15° NNW
NOSS 3-4 (A) 4.5 20:00:02 10° NW 20:04:34 45° NNW 20:04:34 45° NNW
BREEZE M DEB (TANK) 4.2 20:02:30 10° WNW 20:06:13 65° NW 20:06:13 65° NW
Cosmos 2082 Rocket 4.2 20:23:11 10° NW 20:27:09 23° W 20:27:09 23° W
FALCON 9 R/B 4.4 20:43:54 10° W 20:51:03 30° WSW 20:51:03 30° WSW
